Phoenix, AZ - PHX

The Valley of the Sun

The Phoenix Sky Harbor International Airport is located in the middle of downtown Phoenix, AZ which is the fifth most populus in the United States and serves as a major hub for American Airlines. AAG alone makes up over 50% of the operations out of the PHX airport making it a key connection point for the south western United States.

PHX Based Pilots: 26   Miles to PHX: 373813
Flights from PHX: 540   Total Hours: 2129.55
Routes using PHX: 916   From PHX: 1065.68
Total Miles: 792095   Hours To PHX: 1063.87
Miles from PHX: 418282   PHX Charts: Click Here
VATSIM METAR: KPHX 141451Z 12004KT 10SM FEW200 FEW250 18/01 A3002 RMK AO2 SLP151 T01830006 53011
 
         
View More: Click Here
   

 

Earn Your Wings

Interested in joining our PHX hub? Hover for more!

Your journey starts here. Your journey starts now. A whole new experience is at your fingertips.

Like what you see and ready to join the team?

A rewarding and memorable virtual airline experience awaits!